Location: Brachbach
(49.1847°N, 9.7240°E)
Time: 07:11:13
(UTC+00:00)

Cosmos 1025 Rocket - Pass Details

Date: 05 August 2024
Orbit: 590 x 612 km, 82.5° (Epoch: 07 September)

Event Time Altitude Azimuth Distance (km) Brightness Sun altitude
Rises 03:05:49 0° 2° (N) 2,883 7.1 -8.2°
Reaches altitude 10° 03:08:41 10° 22° (NNE) 1,977 6.7 -7.8°
Maximum altitude 03:11:42 18° 66° (ENE) 1,521 6.4 -7.4°
Drops below altitude 10° 03:14:42 10° 109° (ESE) 1,972 6.2 -7.0°
Sets 03:17:32 0° 129° (SE) 2,873 6.7 -6.7°
